Weather History for KTIF - May, 2014

Change the Weather History Date:

Monday, May 19, 2014

  Actual Average (KLBF) Record (KLBF)
Temperature  
Mean Temperature 68 °F 59 °F  
Max Temperature 81 °F 73 °F 98 °F (1934)
Min Temperature 56 °F 45 °F 29 °F (1981)
Degree Days  
Heating Degree Days 0 7  
Month to date heating degree days 180  
Since 1 July heating degree days 6570  
Cooling Degree Days 4 1  
Month to date cooling degree days 9  
Year to date cooling degree days 12  
Growing Degree Days 18 (Base 50)    
Moisture  
Dew Point 54 °F    
Average Humidity 60    
Maximum Humidity 91    
Minimum Humidity 37    
Precipitation  
Precipitation 0.00 in 0.11 in 1.36 in (1879)
Month to date precipitation 1.87  
Year to date precipitation 6.03  
Snow  
Snow 0.00 in 0.00 in 3.90 in (1915)
Month to date snowfall 0.0  
Since 1 July snowfall 28.5  
Snow Depth -    
Sea Level Pressure  
Sea Level Pressure 29.72 in    
Wind  
Wind Speed 10 mph (NE)    
Max Wind Speed 17 mph    
Max Gust Speed 26 mph    
Visibility 9 miles    
Events Rain , Thunderstorm    
T = Trace of Precipitation, MM = Missing Value Source: NWS Daily Summary

Daily Weather History Graph

Daily Weather History Graph

Search for Another Location

Airport or City:

Trip Planner

Search our weather history database for the weather conditions in past years. The results will help you decide how hot, cold, wet, or windy it might be!

Date:

Astronomy

May. 19, 2014 Rise Set
Actual Time 6:18 AM CDT 8:59 PM CDT
Civil Twilight 5:45 AM CDT 9:32 PM CDT
Nautical Twilight 5:05 AM CDT 10:13 PM CDT
Astronomical Twilight 4:19 AM CDT 10:59 PM CDT
Moon 12:47 AM CDT (5/19) 11:19 AM CDT (5/19)
Length of Visible Light 15h 46m
Length of Day
14h 41m
Waning Gibbous, 71% of the Moon is Illuminated
May 19
Waning Gibbous
May 21
Last Quarter
May 28
New
Jun 5
First Quarter
Jun 12
Full

Hourly Weather History & Observations

Time (CDT) Temp. Heat Index Dew Point Humidity Pressure Visibility Wind Dir Wind Speed Gust Speed Precip Events Conditions
12:00 AM 67.1 °F - 54.5 °F 64% 29.75 in 10.0 mi SSE 13.8 mph - N/A   Scattered Clouds
12:15 AM 66.7 °F - 54.5 °F 65% 29.75 in 10.0 mi SSE 11.5 mph - N/A   Scattered Clouds
12:35 AM 65.8 °F - 54.5 °F 67% 29.74 in 10.0 mi SE 11.5 mph - N/A Thunderstorm Scattered Clouds
1:15 AM 65.1 °F - 54.5 °F 68% 29.71 in 10.0 mi SE 12.7 mph - N/A Thunderstorm Thunderstorm
1:35 AM 64.4 °F - 54.5 °F 70% 29.70 in 10.0 mi SE 13.8 mph - N/A   Scattered Clouds
1:55 AM 64.4 °F - 54.1 °F 69% 29.69 in 10.0 mi SE 15.0 mph - N/A Thunderstorm Scattered Clouds
2:15 AM 63.5 °F - 54.7 °F 73% 29.66 in 10.0 mi SE 17.3 mph 24.2 mph N/A Rain Light Rain
2:35 AM 62.2 °F - 55.0 °F 77% 29.65 in 10.0 mi SE 16.1 mph 26.5 mph N/A   Clear
2:55 AM 62.2 °F - 55.0 °F 77% 29.66 in 10.0 mi SE 11.5 mph - N/A Thunderstorm Clear
3:15 AM 61.9 °F - 55.0 °F 78% 29.67 in 10.0 mi SE 9.2 mph - N/A Thunderstorm Clear
3:35 AM 61.2 °F - 54.7 °F 79% 29.68 in 10.0 mi ESE 4.6 mph - N/A   Clear
3:55 AM 59.0 °F - 54.0 °F 83% 29.68 in 10.0 mi ENE 4.6 mph - N/A   Scattered Clouds
4:35 AM 59.0 °F - 55.0 °F 87% 29.66 in 10.0 mi East 3.5 mph - N/A   Overcast
4:55 AM 59.0 °F - 55.0 °F 87% 29.66 in 10.0 mi ENE 8.1 mph - N/A   Overcast
5:15 AM 58.1 °F - 54.5 °F 88% 29.66 in 7.0 mi ENE 8.1 mph - N/A   Overcast
5:30 AM 58.1 °F - 54.7 °F 88% 29.66 in 7.0 mi ENE 6.9 mph - N/A   Mostly Cloudy
5:55 AM 58.3 °F - 55.0 °F 89% 29.67 in 7.0 mi East 3.5 mph - N/A   Mostly Cloudy
6:15 AM 58.6 °F - 55.0 °F 88% 29.66 in 7.0 mi ESE 4.6 mph - N/A   Mostly Cloudy
6:30 AM 57.4 °F - 54.0 °F 88% 29.65 in 5.0 mi SE 4.6 mph - N/A   Scattered Clouds
6:55 AM 56.7 °F - 54.0 °F 91% 29.65 in 4.0 mi Calm Calm - N/A   Clear
7:15 AM 56.8 °F - 54.3 °F 91% 29.65 in 4.0 mi Calm Calm - N/A   Clear
7:35 AM 58.1 °F - 55.4 °F 91% 29.66 in 5.0 mi Calm Calm - N/A   Clear
8:35 AM 63.5 °F - 57.2 °F 80% 29.66 in 7.0 mi SSE 6.9 mph - N/A   Scattered Clouds
9:35 AM 65.1 °F - 57.0 °F 75% 29.68 in 10.0 mi SW 6.9 mph - N/A   Mostly Cloudy
9:55 AM 65.5 °F - 56.8 °F 74% 29.68 in 10.0 mi SW 6.9 mph - N/A   Scattered Clouds
10:15 AM 67.1 °F - 57.2 °F 70% 29.68 in 10.0 mi WSW 5.8 mph - N/A   Scattered Clouds
10:35 AM 68.0 °F - 57.2 °F 68% 29.67 in 10.0 mi West 5.8 mph - N/A   Scattered Clouds
10:55 AM 69.3 °F - 57.6 °F 66% 29.67 in 10.0 mi WNW 8.1 mph - N/A   Clear
11:15 AM 70.9 °F - 57.4 °F 62% 29.67 in 10.0 mi NW 9.2 mph - N/A   Clear
11:35 AM 72.3 °F - 57.2 °F 59% 29.67 in 10.0 mi NW 4.6 mph - N/A   Clear
11:55 AM 74.1 °F - 56.7 °F 54% 29.67 in 10.0 mi NNW 10.4 mph - N/A   Clear
12:15 PM 74.7 °F - 56.5 °F 53% 29.66 in 10.0 mi North 8.1 mph - N/A   Clear
12:35 PM 75.9 °F - 56.1 °F 50% 29.67 in 10.0 mi NNW 6.9 mph - N/A   Clear
12:55 PM 77.0 °F - 56.1 °F 48% 29.67 in 10.0 mi North 10.4 mph - N/A   Clear
1:15 PM 77.7 °F - 56.3 °F 48% 29.67 in 10.0 mi North 8.1 mph - N/A   Clear
1:35 PM 78.6 °F - 56.3 °F 46% 29.66 in 10.0 mi North 9.2 mph - N/A   Clear
1:55 PM 79.2 °F - 53.8 °F 41% 29.66 in 10.0 mi North 11.5 mph 16.1 mph N/A   Clear
2:15 PM 80.2 °F 80.4 °F 55.9 °F 43% 29.67 in 10.0 mi North 12.7 mph 17.3 mph N/A   Clear
2:35 PM 81.0 °F 80.9 °F 56.3 °F 43% 29.68 in 10.0 mi NNE 11.5 mph 19.6 mph N/A   Clear
2:55 PM 80.1 °F 80.1 °F 55.0 °F 42% 29.69 in 10.0 mi North 15.0 mph 20.7 mph N/A   Clear
3:15 PM 80.6 °F 80.5 °F 55.6 °F 42% 29.69 in 10.0 mi North 16.1 mph 25.3 mph N/A   Clear
3:35 PM 79.3 °F - 55.9 °F 44% 29.71 in 10.0 mi North 12.7 mph 20.7 mph N/A   Clear
3:55 PM 79.3 °F - 55.4 °F 44% 29.71 in 10.0 mi North 16.1 mph 20.7 mph N/A   Clear
4:15 PM 79.7 °F - 56.1 °F 44% 29.72 in 10.0 mi North 16.1 mph 20.7 mph N/A   Clear
4:35 PM 79.5 °F - 55.8 °F 44% 29.72 in 10.0 mi North 12.7 mph 21.9 mph N/A   Clear
4:55 PM 78.3 °F - 55.4 °F 45% 29.73 in 10.0 mi NNE 17.3 mph 21.9 mph N/A   Clear
5:15 PM 78.1 °F - 54.3 °F 44% 29.73 in 10.0 mi NNE 13.8 mph 19.6 mph N/A   Clear
5:55 PM 77.9 °F - 50.4 °F 38% 29.75 in 10.0 mi NNE 15.0 mph - N/A   Clear
6:15 PM 77.4 °F - 49.3 °F 37% 29.75 in 10.0 mi NE 15.0 mph 20.7 mph N/A   Clear
6:30 PM 77.4 °F - 50.2 °F 38% 29.75 in 10.0 mi NE 12.7 mph - N/A   Clear
6:55 PM 77.0 °F - 50.2 °F 39% 29.76 in 10.0 mi NE 12.7 mph 19.6 mph N/A   Clear
7:15 PM 76.3 °F - 48.0 °F 37% 29.77 in 10.0 mi North 12.7 mph - N/A   Clear
7:35 PM 75.7 °F - 48.4 °F 38% 29.77 in 10.0 mi NNE 12.7 mph - N/A   Clear
7:55 PM 74.7 °F - 50.2 °F 42% 29.77 in 10.0 mi NE 10.4 mph - N/A   Clear
8:15 PM 73.4 °F - 47.3 °F 39% 29.77 in 10.0 mi NE 10.4 mph - N/A   Clear
8:35 PM 70.9 °F - 47.5 °F 43% 29.78 in 10.0 mi NE 8.1 mph - N/A   Clear
8:55 PM 67.6 °F - 48.6 °F 50% 29.79 in 10.0 mi NE 5.8 mph - N/A   Clear
9:15 PM 66.4 °F - 48.2 °F 52% 29.79 in 10.0 mi ENE 3.5 mph - N/A   Clear
9:35 PM 65.1 °F - 48.2 °F 54% 29.80 in 10.0 mi NE 3.5 mph - N/A   Clear
9:55 PM 65.3 °F - 48.9 °F 55% 29.82 in 10.0 mi Calm Calm - N/A   Clear
10:15 PM 65.3 °F - 48.6 °F 55% 29.84 in 10.0 mi Calm Calm - N/A   Clear
10:35 PM 64.4 °F - 49.5 °F 58% 29.89 in 10.0 mi West 6.9 mph - N/A   Scattered Clouds
10:55 PM 63.5 °F - 49.8 °F 61% 29.87 in 10.0 mi NNW 5.8 mph - N/A   Scattered Clouds
11:15 PM 64.9 °F - 47.3 °F 53% 29.87 in 10.0 mi Calm Calm - N/A   Clear
11:35 PM 63.3 °F - 47.7 °F 57% 29.89 in 10.0 mi Calm Calm - N/A   Clear
11:55 PM 62.2 °F - 47.8 °F 59% 29.87 in 10.0 mi NE 6.9 mph - N/A   Clear